Location: Goettingen
(51.5300°N, 9.9433°E)
Time: 01:56:08
(UTC+02:00)

ISS - Pass Details

Date: 28 May 2023
Orbit: 411 x 419 km, 51.6° (Epoch: 04 June)

Event Time Altitude Azimuth Distance (km) Brightness Sun altitude
Rises 22:46:19 0° 278° (W) 2,356 0.8 -9.8°
Reaches altitude 10° 22:49:31 10° 245° (WSW) 1,490 -0.8 -10.1°
Maximum altitude 22:50:46 12° 222° (SW) 1,389 -1.3 -10.2°
Drops below altitude 10° 22:52:02 10° 200° (SSW) 1,488 -1.3 -10.3°
Enters shadow 22:52:42 - 190° (S) 1,613 -1.2 -10.3°
